PST,Max TemperatureF,Mean TemperatureF,Min TemperatureF,Max Dew PointF,MeanDew PointF,Min DewpointF,Max Humidity, Mean Humidity, Min Humidity, Max Sea Level PressureIn, Mean Sea Level PressureIn, Min Sea Level PressureIn, Max VisibilityMiles, Mean VisibilityMiles, Min VisibilityMiles, Max Wind SpeedMPH, Mean Wind SpeedMPH, Max Gust SpeedMPH,PrecipitationIn, CloudCover, Events, WindDirDegrees
2012-12-1,60,58,55,58,56,54,100,99,88,30.21,30.16,30.10,10,3,0,15,7,,0.06,7,Fog-Rain,271
2012-12-2,60,56,53,58,56,54,100,97,86,30.17,30.12,30.09,10,3,0,17,11,24,0.09,7,Fog-Rain,265
2012-12-3,60,57,54,59,55,44,100,92,64,30.19,30.15,30.10,10,5,0,14,10,,0.57,3,Fog-Rain,265
2012-12-4,62,56,51,56,52,43,100,88,66,30.26,30.20,30.15,10,6,0,12,5,,0.00,1,Fog,293
2012-12-5,66,60,55,57,51,41,100,76,48,30.14,30.07,30.01,10,7,0,12,7,,0.00,0,Fog,293
2012-12-6,61,58,55,57,55,49,100,91,69,30.02,29.96,29.88,10,5,0,9,4,,0.02,4,Fog,319
2012-12-7,66,58,50,55,50,37,100,81,36,30.00,29.94,29.90,10,5,0,10,4,,0.00,1,Fog,6
2012-12-8,66,57,48,54,47,36,100,73,36,29.97,29.93,29.89,10,7,0,7,3,,0.00,0,Fog,282
2012-12-9,59,54,48,53,48,29,100,88,32,30.11,30.02,29.96,10,5,0,8,4,,0.00,4,Fog,138
2012-12-10,66,62,57,48,35,27,67,37,26,30.13,30.08,30.03,10,10,4,16,6,18,0.00,0,,294
2012-12-11,66,58,50,52,45,25,100,74,21,30.04,29.99,29.95,10,6,0,12,8,,0.00,2,Fog,245
2012-12-12,54,52,50,52,49,45,100,91,74,29.99,29.91,29.85,10,7,0,9,5,,0.18,8,Fog-Rain,213
2012-12-13,52,49,46,52,46,39,100,89,66,29.85,29.80,29.75,10,6,0,22,11,24,0.02,5,Fog-Rain,264
2012-12-14,50,47,44,45,40,36,100,81,59,29.99,29.90,29.76,10,9,0,20,13,25,0.13,5,Fog-Rain,239
2012-12-15,50,47,44,46,42,37,100,84,63,30.11,30.03,29.94,10,7,0,18,10,26,0.00,5,Fog-Rain,322
2012-12-16,52,50,48,52,47,40,100,92,71,30.16,30.12,30.08,10,4,0,16,8,23,0.16,8,Fog-Rain,148
2012-12-17,55,53,51,54,51,46,100,95,80,30.17,30.10,30.01,10,4,0,13,7,,0.18,7,Fog-Rain,46
2012-12-18,53,49,44,53,47,28,100,89,53,30.04,29.94,29.84,10,6,0,26,8,38,0.13,6,Fog-Rain,249
2012-12-19,52,48,43,31,24,13,56,42,21,30.27,30.18,30.06,10,10,10,17,12,29,0.00,0,,44
2012-12-20,57,51,45,39,20,6,66,32,15,30.22,30.15,30.09,10,10,10,12,7,,0.00,0,,50
2012-12-21,55,50,46,44,31,7,80,54,16,30.12,30.08,30.04,10,10,10,9,3,,0.00,0,,239
2012-12-22,55,50,45,49,45,40,90,78,63,30.19,30.15,30.07,10,10,9,12,6,,0.00,4,Rain,243
2012-12-23,55,52,48,50,48,46,100,88,72,30.23,30.17,30.14,10,6,0,13,6,17,0.26,6,Fog-Rain,249
2012-12-24,55,52,48,55,50,45,100,93,80,30.12,30.07,30.02,10,5,0,22,11,34,0.32,5,Fog-Rain,262
2012-12-25,53,50,48,52,48,44,100,92,74,30.10,30.06,29.99,10,4,0,13,4,,0.00,6,Fog,158
2012-12-26,52,49,46,48,44,39,100,84,68,30.01,29.97,29.94,10,8,0,26,12,36,0.08,5,Fog-Rain,263
2012-12-27,52,49,46,43,40,33,86,74,56,30.10,30.01,29.96,10,10,10,16,13,24,0.00,3,,310
2012-12-28,54,50,46,48,40,27,83,68,41,30.17,30.12,30.08,10,10,7,9,4,,0.00,3,,124
2012-12-29,50,47,44,47,43,40,100,89,77,30.08,30.00,29.96,10,6,0,12,5,,0.04,6,Fog-Rain,61
2012-12-30,48,46,44,43,40,33,93,80,59,30.08,29.98,29.92,10,10,6,16,7,25,0.00,5,,315
2012-12-31,54,50,45,38,35,31,73,61,43,30.25,30.19,30.09,10,10,10,14,7,22,0.00,0,,343